Weather in Rychkovo

Russia / Orenburg Oblast     53°59′12″N   52°31′27″E
temp.,
°C
wind,
m/s
gust,
m/s
humid.,
%
clouds,
%
prec.,
mm/h
press.,
hPa
HPBL,
m
26 january, tue
tue2623:00−5s4996100 0.2 1031563
02:00−4ssw51095100 0.1 1031589
05:00−4s41096100 0.3 1030476
08:00−3sse5996100 0.1 1030392
11:00−6s5997100 0.1 1030339
14:00−6s6996100 0.1 1030342
17:00−4s61295100 0.1 1028454
20:00−6s61393100 0.0 1029390
27 january, wed
wed2723:00−7s61395100 0.0 1028416
02:00−5ssw51195100 0.1 1029584
05:00−4s51095100 0.2 1029574
08:00−5s61095100 0.1 1029510
11:00−6s6109799 0.1 1029387
14:00−6s6997100 0.1 1029373
17:00−5s71195100 0.1 1028430
20:00−7s71394100 0.0 1027343
28 january, thu
thu2823:00−7s61495100 0.0 1026367
02:00−7s71592100 0.0 1026362
05:00−8s61290100 0.0 1025324
08:00−9sse61291100 0.0 1024325
11:00−9s61292100 0.0 1024331
14:00−8s61092100 0.0 1023335
17:00−8sse51094100 0.0 1023290
20:00−9sse4995100 0.0 1022226
29 january, fri
fri2923:00−9se4895100 0.0 1022188
02:00−10se4893100 0.0 1021158
05:00−10se4891100 0.0 1019176
08:00−8ese51088100 0.0 1017241
11:00−7ese61184100 0.0 1015270
14:00−5se61284100 0.0 1013384
17:00−4se71388100 0.0 1010464
20:00−5se71495100 0.8 1009563
30 january, sat
sat3023:00−4se71395100 2.0 1007555
02:00−2se71396100 1.3 1007564
05:00−1ssw5996100 2.1 1008535
08:00−2ssw5995100 0.1 1010516
11:00−4sse479798 0.1 1011251
14:00−3sse579798 0.0 1012272
17:00−4sse499698 0.0 1012266
20:00−5se61195100 0.0 1010253